N0RRC Weather Reports


time (UTC)temp
F
wind
direction
speed
knots
gust
knots
rain 1hr
in
rain 24hr
in
rain mn
in
humidity
%
barometer
mb
20260504033736 56 191 0.0 1.7 0.00 0.00 0.00 69 1003.9
20260504032716 57 191 0.9 1.7 0.00 0.00 0.00 68 1004.0
20260504031657 57 191 0.9 2.6 0.00 0.00 0.00 68 1004.1
20260504030657 57 191 2.6 3.5 0.00 0.00 0.00 67 1004.0
20260504025656 57 0.0 1.7 0.00 0.00 0.00 67 1004.1
20260504024656 57 191 0.0 0.9 0.00 0.00 0.00 68 1004.0
20260504023656 57 191 0.9 1.7 0.00 0.00 0.00 68 1003.9
20260504022656 57 191 0.0 1.7 0.00 0.00 0.00 69 1004.0
20260504021657 57 191 0.9 2.6 0.00 0.00 0.00 68 1004.0
20260504020656 57 192 0.0 1.7 0.00 0.00 0.00 68 1003.9
20260504015656 58 192 0.0 0.9 0.00 0.00 0.00 67 1003.9
20260504014656 58 192 0.9 3.5 0.00 0.00 0.00 66 1003.8
20260504013657 59 192 0.9 1.7 0.00 0.00 0.00 65 1003.6
20260504012656 60 194 3.5 4.3 0.00 0.00 0.00 63 1003.6
20260504011657 61 231 2.6 3.5 0.00 0.00 0.00 61 1003.5
20260504010656 61 235 0.9 1.7 0.00 0.00 0.00 61 1003.8
20260504005656 62 236 0.0 1.7 0.00 0.00 0.00 60 1003.8
20260504004655 63 236 0.9 2.6 0.00 0.00 0.00 58 1003.8
20260504003656 63 240 1.7 3.5 0.00 0.00 0.00 59 1003.7
20260504002656 64 242 1.7 4.3 0.00 0.00 0.00 57 1003.7
20260504001657 65 230 2.6 4.3 0.00 0.00 0.00 57 1003.5
20260504000656 65 239 4.3 7.8 0.00 0.00 0.00 55 1003.5
20260503235655 65 231 3.5 7.0 0.00 0.00 0.00 55 1003.3
20260503234655 66 236 3.5 7.8 0.00 0.00 0.00 54 1003.4
20260503233655 66 238 5.2 7.8 0.00 0.00 0.00 54 1003.5
20260503232656 66 244 6.1 12.2 0.00 0.00 0.00 53 1003.5
20260503231656 67 245 5.2 10.4 0.00 0.00 0.00 52 1003.8
20260503230655 66 238 6.1 10.4 0.00 0.00 0.00 52 1003.6
20260503225715 66 249 5.2 12.2 0.00 0.00 0.00 53 1003.8
20260503224655 67 229 7.0 10.4 0.00 0.00 0.00 53 1003.7
20260503223655 66 239 6.1 10.4 0.00 0.00 0.00 53 1003.9
20260503222656 66 243 7.8 11.3 0.00 0.00 0.00 52 1003.9
20260503221657 66 238 7.8 13.0 0.00 0.00 0.00 52 1003.9
20260503220655 66 214 4.3 11.3 0.00 0.00 0.00 52 1003.9
20260503215736 66 244 7.8 16.5 0.00 0.00 0.00 52 1003.8
20260503214655 66 229 5.2 8.7 0.00 0.00 0.00 52 1003.9
20260503213716 66 218 6.1 12.2 0.00 0.00 0.00 53 1004.0
20260503212655 66 238 7.0 11.3 0.00 0.00 0.00 53 1004.0
20260503211717 66 212 5.2 9.6 0.00 0.00 0.00 54 1004.4
20260503210655 66 217 5.2 12.2 0.00 0.00 0.00 54 1004.4
20260503205655 65 222 7.0 12.2 0.00 0.00 0.00 52 1004.3
20260503204655 65 209 7.8 13.9 0.00 0.00 0.00 54 1004.5
20260503203655 65 245 8.7 13.9 0.00 0.00 0.00 54 1004.6
20260503202655 65 214 6.1 12.2 0.00 0.00 0.00 54 1004.9
20260503201655 64 215 7.0 17.4 0.00 0.00 0.00 58 1005.1
20260503200656 63 209 7.0 11.3 0.00 0.00 0.00 57 1005.1
20260503195655 63 224 7.8 12.2 0.00 0.00 0.00 59 1005.4
20260503194655 64 211 7.0 13.0 0.00 0.00 0.00 55 1005.7
20260503193658 64 238 8.7 16.5 0.00 0.00 0.00 57 1005.8
20260503192657 63 217 7.0 13.9 0.00 0.00 0.00 56 1005.9
20260503191658 63 216 10.4 16.5 0.00 0.00 0.00 53 1005.9
20260503190657 63 231 9.6 19.1 0.00 0.00 0.00 54 1006.0
20260503185657 63 217 9.6 15.6 0.00 0.00 0.00 53 1005.9
20260503184657 63 216 8.7 14.8 0.00 0.00 0.00 54 1006.1
20260503183657 63 198 9.6 18.2 0.00 0.00 0.00 56 1006.1
20260503182738 62 217 8.7 16.5 0.00 0.00 0.00 56 1006.0
20260503181657 61 210 9.6 19.1 0.00 0.00 0.00 59 1006.1
20260503180657 61 204 8.7 18.2 0.00 0.00 0.00 62 1006.5
20260503175718 60 206 7.0 13.9 0.00 0.00 0.00 63 1006.8
20260503174657 60 200 12.2 21.7 0.00 0.00 0.00 62 1006.9
20260503173658 60 198 9.6 15.6 0.00 0.00 0.00 62 1007.1
20260503172658 59 213 7.0 17.4 0.00 0.00 0.00 63 1007.3
20260503171657 59 222 7.0 19.1 0.00 0.00 0.00 63 1007.6
20260503170657 58 212 7.8 13.9 0.00 0.00 0.00 61 1007.7
20260503150656 53 224 6.1 13.0 0.00 0.00 0.00 72 1009.1
20260503130656 52 238 7.0 11.3 0.00 0.00 0.00 64 1010.3
20260503110656 48 239 4.3 7.8 0.00 0.00 0.00 64 1010.3
20260503080716 45 187 2.6 5.2 0.00 0.00 0.00 68 1011.4
20260503072657 46 199 1.7 2.6 0.00 0.00 0.00 68 1011.7
20260503071717 46 193 2.6 5.2 0.00 0.00 0.00 67 1011.8
20260503070655 46 196 2.6 8.7 0.00 0.00 0.00 67 1011.7
20260503054656 45 185 3.5 5.2 0.00 0.00 0.00 67 1012.4
20260503053657 45 191 1.7 4.3 0.00 0.00 0.00 66 1012.7
20260503052655 45 195 1.7 3.5 0.00 0.00 0.00 66 1012.5
20260503051738 46 194 2.6 6.1 0.00 0.00 0.00 65 1012.6
20260503050655 46 192 1.7 3.5 0.00 0.00 0.00 65 1012.6
20260503045716 46 212 1.7 3.5 0.00 0.00 0.00 65 1012.7
20260503044656 46 190 1.7 4.3 0.00 0.00 0.00 65 1012.7
20260503043656 46 192 1.7 3.5 0.00 0.00 0.00 65 1012.7
20260503042656 46 194 1.7 3.5 0.00 0.00 0.00 64 1012.8
20260503041657 46 199 1.7 3.5 0.00 0.00 0.00 64 1012.9
20260503040656 46 199 1.7 3.5 0.00 0.00 0.00 64 1013.0
20260503035656 46 196 1.7 3.5 0.00 0.00 0.00 64 1013.1
20260503034657 46 200 1.7 3.5 0.00 0.00 0.00 63 1013.2